Flag for U.S.A. Weather past 2 weeks in Chico, California, U.S.A.

Now
90 °F

Partly sunny.


Feels Like: 86 °F
Forecast: 66 / 89 °F
Wind: 18 mph from Southeast

Location: Chico Municipal

Current Time: Sep 17, 2014 at 4:48:11 PM

Latest Report: Sep 17, 2014 at 3:47 PM


Visibility: 25 mi

Pressure: 29.68 "Hg

Humidity: 17%

Dew point: 39 °F

Location of ChicoLocation

Historic Weather in Chico — Graph

°F

Chico temperature yesterday

Maximum temperature yesterday: 86 °F (at 2:59 PM)
Minimum temperature yesterday: 61 °F (at 5:55 AM)
Average temperature yesterday: 72 °F

Past Weeks' High & Low Weather Summary

 TemperatureHumidityPressure
High100 °F (Sep 13, 4:58 PM)94% (Sep 9, 9:48 AM)29.99 "Hg (Sep 9, 9:48 AM)
Low50 °F (Sep 9, 9:48 AM)6% (Sep 4, 2:58 PM)29.60 "Hg (Sep 3, 6:55 PM)
Average77 °F31%29.80 "Hg
* Reported Sep 2 3:50 PM — Sep 17 3:47 PM, Chico, Weather by CustomWeather, © 2014

Note: Actual official high and low records may vary slightly from our data, if they occured in-between our weather recording intervals... More about our weather records

Advertising

Chico weather history for previous 24 hours

 ConditionsComfort  
Time TempWeatherWind HumidityBarometerVisibility
3:47 PM
Sep 17
90 °FPartly sunny.18 mph17%29.68 "Hg25 mi
2:47 PM91 °FPartly sunny.13 mph15%29.71 "Hg25 mi
12:47 PM88 °FScattered clouds.18 mph21%29.75 "Hg25 mi
11:48 AM84 °FBroken clouds.14 mph25%29.77 "Hg25 mi
10:55 AM81 °FScattered clouds.9 mph26%29.78 "Hg25 mi
9:55 AM75 °FScattered clouds.No wind29%29.80 "Hg40 mi
8:50 AM70 °FScattered clouds.No wind38%29.80 "Hg40 mi
7:55 AM64 °FScattered clouds.No wind49%29.79 "Hg40 mi
6:55 AM63 °FPassing clouds.No wind52%29.77 "Hg10 mi
6:35 AM63 °FPassing clouds.No wind52%29.76 "Hg10 mi
6:15 AM66 °FPassing clouds.No wind43%29.76 "Hg10 mi
5:55 AM66 °FPassing clouds.3 mph46%29.76 "Hg10 mi
5:35 AM64 °FMostly cloudy.6 mph46%29.76 "Hg10 mi
4:55 AM64 °FPassing clouds.6 mph49%29.76 "Hg10 mi
4:35 AM66 °FPassing clouds.7 mph46%29.76 "Hg10 mi
4:15 AM68 °FPassing clouds.5 mph38%29.76 "Hg10 mi
3:55 AM72 °FPassing clouds.3 mph29%29.76 "Hg10 mi
3:35 AM72 °FClear.3 mph29%29.76 "Hg10 mi
3:15 AM75 °FClear.6 mph25%29.76 "Hg10 mi
2:55 AM75 °FPassing clouds.7 mph25%29.77 "Hg10 mi
2:35 AM75 °FClear.7 mph25%29.77 "Hg10 mi
2:15 AM75 °FClear.7 mph25%29.78 "Hg10 mi
1:55 AM75 °FClear.8 mph25%29.77 "Hg10 mi
1:35 AM73 °FClear.6 mph29%29.77 "Hg10 mi
1:15 AM75 °FClear.3 mph27%29.77 "Hg10 mi
12:55 AM73 °FClear.3 mph29%29.78 "Hg10 mi
12:35 AM72 °FPassing clouds.No wind33%29.77 "Hg10 mi
12:15 AM70 °FClear.3 mph35%29.77 "Hg10 mi
11:55 PM
Sep 16
72 °FClear.5 mph33%29.77 "Hg10 mi
11:35 PM72 °FClear.No wind33%29.78 "Hg10 mi
11:15 PM73 °FClear.5 mph31%29.77 "Hg10 mi
10:55 PM73 °FClear.6 mph31%29.77 "Hg10 mi
10:35 PM73 °FClear.3 mph31%29.78 "Hg10 mi
10:15 PM73 °FClear.6 mph31%29.77 "Hg10 mi
9:55 PM73 °FClear.6 mph31%29.77 "Hg10 mi
9:35 PM73 °FClear.6 mph31%29.77 "Hg10 mi
9:15 PM75 °FClear.6 mph29%29.77 "Hg10 mi
8:55 PM75 °FClear.6 mph29%29.78 "Hg10 mi
8:15 PM77 °FClear.3 mph32%29.77 "Hg10 mi
7:55 PM79 °FSunny.3 mph32%29.77 "Hg10 mi
7:35 PM81 °FSunny.No wind30%29.77 "Hg10 mi
7:15 PM81 °FSunny.No wind32%29.77 "Hg10 mi
6:55 PM82 °FSunny.6 mph28%29.77 "Hg10 mi
5:58 PM86 °FBroken clouds.7 mph20%29.77 "Hg25 mi
Weather by CustomWeather, © 2014

See weather overviewHow to use our weather pages